Preview of NWS' New Version of Forecast
This preview is not operational and should not be used for support decisions.

Regional Weather Roundup (RWR)

Issued by Gray - Portland, ME (GYX)

                            
857 
ASUS41 KGYX 211305
RWRGYX
WEATHER ROUNDUP FOR MAINE AND NEW HAMPSHIRE
NATIONAL WEATHER SERVICE GRAY ME
900 AM EDT SAT APR 21 2018

MEZ002-005-006-010-012-015-018-020-021-024-026-027-029-211400-
MAINE
  
CITY           SKY/WX    TMP DP  RH WIND       PRES   REMARKS
PORTLAND       FAIR      46  25  43 NW17G29   30.25S                  
SANFORD        FAIR      45  24  43 NW9G20    30.26F                  
BAR HARBOR     FAIR      43  29  57 N13       30.18S                  
WISCASSET      FAIR      45  27  49 VRB5      30.24S                  
ROCKLAND       FAIR      44  28  53 NW8       30.21S                  
FRYEBURG       PTSUNNY   45  24  43 VRB3      30.25S                  
LEWISTONAUBURN FAIR      43  25  49 NW10      30.24S                  
AUGUSTA        FAIR      44  26  49 NW10G22   30.22S                  
WATERVILLE     PTSUNNY   43  27  53 NW10G17   30.19S                  
BANGOR         FAIR      44  29  55 NW17G23   30.18F                  
GREENVILLE       N/A     36  27  69 NW13G23   30.12S                  
MILLINOCKET    FAIR      42  26  53 NW8       30.16F                  
HOULTON        FAIR      39  22  50 N12G21    30.11S                  
PRESQUE ISLE   FAIR      37  21  52 N13       30.13S                  
FRENCHVILLE    FAIR      35  19  52 NW14      30.10S                  
CARIBOU        FAIR      37  22  54 NW12      30.11S                  
$$

NHZ002-005-008-009-011-012-014-211400-
NEW HAMPSHIRE
  
CITY           SKY/WX    TMP DP  RH WIND       PRES   REMARKS
PORTSMOUTH     MOSUNNY   46  25  43 W8        30.26S                  
ROCHESTER      FAIR      45  26  47 NW10      30.26F                  
NASHUA         FAIR      45  25  45 NW10      30.30F                  
MANCHESTER     FAIR      47  23  38 NW10      30.28F                  
CONCORD        FAIR      45  26  47 NW7       30.29S                  
LACONIA        FAIR      43  24  47 VRB6      30.27F                  
PLYMOUTH       FAIR      43  24  48 NW9       30.27F                  
BERLIN         CLOUDY    41  25  53 N8        30.23S                  
WHITEFIELD     CLOUDY    40  27  59 VRB7      30.26S                  
JAFFREY        FAIR      41  26  55 W13       30.29S                  
KEENE          FAIR      44  28  53 VRB3      30.32F                  
LEBANON        FAIR      44  23  43 N10       30.30R                  
MT WASHINGTON  BLWGSNOW  14  14 100 NW47G62     N/A  VSB 1/16WCI -11  
$$

VTZ005-007-008-211400-
VERMONT
  
CITY           SKY/WX    TMP DP  RH WIND       PRES   REMARKS
ST JOHNSBURY     N/A     41  25  53 MISG      30.26F                  
MONTPELIER     FAIR      38  25  59 NW10G18   30.32R                  
BURLINGTON     FAIR      44  24  45 NW9       30.33S                  
$$

MAZ007-012-024-CTZ003-RIZ002-NYZ038-NYZ072-211400-
SOUTHERN NEW ENGLAND AND NY
  
CITY           SKY/WX    TMP DP  RH WIND       PRES   REMARKS
BOSTON         FAIR      46  26  45 W13       30.30F                  
WORCESTER      FAIR      39  25  57 W9        30.30S                  
NANTUCKET      FAIR      45  32  60 NW16      30.30S                  
PROVIDENCE     FAIR      47  28  47 NW10      30.33F                  
HARTFORD       FAIR      45  26  47 N6        30.36S                  
ALBANY         FAIR      44  27  51 NW10      30.38S                  
NEW YORK CITY  FAIR      45  28  51 NW12      30.41S                  
$$

ANZ081-ANZ082-ANZ150-NHZ014-MEZ023>029-211400-
COASTAL MARINE OBSERVATIONS
  
STATION/POSITION TIME  TEMP    WIND        PRES    WAVE
                       AIR SEA DIR/SP/G            HT/PER
                 (UTC) (F)     (DEG/KT/KT) (MB)    (FT/S)
MOUNT DESERT ROC 1200   39     300/ 16/ 18 1022.3R
MATINICUS ROCK   1200   41     310/ 14/ 15 1022.5R
ISLE OF SHOALS   1200   41     300/ 16/ 17 1024.6R
JEFFREYS LEDGE   1236      41                N/A     3/ 4
CASHES LEDGE BUO 1250   43 41              1023.7R   3/ 5
$$

.............KEY..............
   WCI - WIND CHILL
   TC  - TEMPERATURE IN CELSIUS
   VSB - VISIBILITY IN MILES
   HX  - HEAT INDEX
   FAIR- INDICATES FEW OR NO CLOUDS BELOW 12,000 FT, WITH NO 
         SIGNIFICANT WEATHER AND/OR OBSTRUCTIONS TO VISIBILITY.